Regional Weather Roundup
Issued by NWS

Home | Current Version | Previous Version | Text Only | Print | Product List | Glossary On
Versions: 1 2 3 4 5 6 7 8 9 10 11 12 13 14 15 16 17 18 19 20 21 22 23 24 25 26 27 28 29 30 31 32 33 34 35 36 37 38 39 40 41 42 43 44 45 46 47 48 49 50
000
ASUS43 KDMX 261908
RWRIA

WEATHER ROUNDUP FOR IOWA
NATIONAL WEATHER SERVICE DES MOINES IA
200 PM CDT THU MAY 26 2016

NOTE: "FAIR" INDICATES FEW OR NO CLOUDS BELOW 12,000 FEET WITH NO
SIGNIFICANT WEATHER AND/OR OBSTRUCTIONS TO VISIBILITY.

* - THESE STATIONS ARE NOT NWS STATIONS...THUS NOT UNDER NWS
QUALITY CONTROL.  THEY ALSO DO NOT REPORT WEATHER SUCH
AS PRECIPITATION OR FOG.

IAZ001>003-012>014-020>022-031>034-043>046-262000-
   NORTHWEST IOWA

CITY           SKY/WX    TMP DP  RH WIND       PRES   REMARKS
CARROLL *      SUNNY     79  57  47 NE6       29.86F HX  80
CHEROKEE *     SUNNY     75  61  60 NE3       29.87F
DENISON *      SUNNY     79  57  47 N6        29.84F HX  80
LE MARS *      SUNNY     75  59  57 S5        29.89S
ORANGE CITY *  SUNNY     73  57  56 CALM      29.90R
SHELDON *      SUNNY     73  52  46 VRB3      29.88R
SIOUX CITY     SUNNY     79  63  57 VRB3      29.86F HX  80
SPENCER        SUNNY     75  55  49 CALM      29.89S
STORM LAKE *     N/A     77  61  57 VRB5      29.89F
$$

IAZ055>058-069>071-079>083-090>094-262000-
   SOUTHWEST IOWA

CITY           SKY/WX    TMP DP  RH WIND       PRES   REMARKS
ATLANTIC *     SUNNY     81  64  57 E7G15     29.82F HX  82
AUDUBON *        N/A     81  63  54 E7        29.86F HX  82
CLARINDA *       N/A     81  68  65 MISG      29.83S HX  83
COUNCIL BLFS * SUNNY     82  63  51 VRB6G12   29.83F HX  83
CRESTON *      SUNNY     81  66  61 VRB6G14   29.83F HX  83
HARLAN  *      SUNNY     81  57  44 E8        29.87F HX  81
LAMONI         PTSUNNY   75  65  70 E8        29.80F
RED OAK *      PTSUNNY   82  68  61 SE5G12    29.81F HX  85
SHENANDOAH *   SUNNY     81  68  65 S12G20    29.82S HX  83
$$

IAZ047>049-059>061-072>074-084-262000-
   CENTRAL IOWA

CITY           SKY/WX    TMP DP  RH WIND       PRES   REMARKS
AMES           SUNNY     79  63  57 VRB3      29.87F HX  80
ANKENY *       SUNNY     81  64  57 VRB5      29.86F HX  82
BOONE *        SUNNY     79  63  57 S6        29.87S HX  80
CHARITON *     SUNNY     77  66  69 E5        29.85F
DES MOINES     CLOUDY    82  64  54 S8        29.86F HX  83
GRINNELL*      CLOUDY    77  63  61 S3        29.89F
KNOXVILLE *    SUNNY     77  66  69 SE8       29.86F
MARSHALLTOWN   CLOUDY    78  61  55 CALM      29.88  HX  80
NEWTON *       CLOUDY    77  64  65 S7        29.88F
PERRY *          N/A     81  59  47 SE5       29.86F HX  81
$$

IAZ004>006-015-016-023>025-035-036-262000-
   NORTH CENTRAL IOWA

CITY           SKY/WX    TMP DP  RH WIND       PRES   REMARKS
ALGONA *       SUNNY     77  55  47 S8G14     29.90S
CLARION *      SUNNY     77  64  65 W8G15     29.90R
ESTHERVILLE    SUNNY     75  52  44 W5        29.88S
FORT DODGE *   SUNNY     79  61  53 W6        29.90F HX  80
MASON CITY     MOSUNNY   77  63  61 SW10      29.91R
FOREST CITY *  MOSUNNY   75  59  57 SW9       29.90S
WEBSTER CITY * SUNNY     79  61  53 CALM      29.88R HX  80
IOWA FALLS *     N/A     79  61  53 SW5       29.91R HX  80
$$

IAZ007>011-017>019-026>030-037>042-050>054-066-262000-
   NORTHEAST IOWA

CITY           SKY/WX    TMP DP  RH WIND       PRES   REMARKS
CEDAR RAPIDS   CLOUDY    77  64  64 SW8       29.89S
CHARLES CITY * SUNNY     79  63  57 SW8G17    29.89S HX  80
CLINTON *      CLOUDY    80  68  66 W9        29.88F HX  83
DECORAH *      MOSUNNY   75  61  60 SW9G15    29.88S
DUBUQUE        SUNNY     80  56  43 W10       29.89R HX  80
MONTICELLO *   SUNNY     81  59  47 W12       29.88F HX  81
OELWEIN *      SUNNY     77  61  57 SW10      29.90F
WATERLOO       SUNNY     80  59  48 SW9       29.88S HX  81
$$

IAZ064-065-067-068-078-262000-
   EAST CENTRAL IOWA

CITY           SKY/WX    TMP DP  RH WIND       PRES   REMARKS
DAVENPORT      SUNNY     83  66  56 SW15      29.88F HX  85
IOWA CITY      CLOUDY    81  63  54 SW8       29.89F HX  82
MT. PLEASANT * CLOUDY    86  59  39 SW14      29.89S HX  85
MUSCATINE *    SUNNY     84  63  48 SW9       29.87S HX  85
QUAD CITIES    SUNNY     87  64  46 SW10G22   29.85F HX  88
$$

IAZ062-063-075>077-085>089-095>099-262000-
   SOUTHEAST IOWA

CITY           SKY/WX    TMP DP  RH WIND       PRES   REMARKS
BURLINGTON     CLOUDY    82  66  58 SW9       29.89F HX  84
FAIRFIELD *      N/A    N/A N/A N/A MISG        N/A
FORT MADISON * SUNNY     82  64  54 SW9       29.90F HX  84
KEOKUK *       SUNNY     81  66  61 W8        29.89S HX  83
OSKALOOSA *      N/A     77  66  69 S9        29.88F
OTTUMWA        CLOUDY    78  65  63 S9        29.87F HX  80
WASHINGTON *   SUNNY     82  75  78 SW9       29.89F HX  89
$$

ABBREVIATIONS USED IN REMARKS
   TC - TEMPERATURES IN CELSIUS
  WCI - WIND CHILL INDEX
   HX - HEAT INDEX
  VSB - VISIBILITY
$$





USA.gov is the U.S. government's official web portal to all federal, state and local government web resources and services.